Theta_e
303 304 305 305 307 306 306 305 306 306 307 308 310 310 311 312 310 310 310 311 312 315 316 320 322 324 324 328 332 329 335 334 336 337 337 337 337 337 338 337 337 334 337 340 337 342 342 339 337 340 334 331 334 336
304 304 304 305 305 306 305 305 305 306 306 307 308 310 310 311 310 309 309 312 312 308 314 318 319 321 323 322 324 322 330 332 333 336 333 333 337 333 333 337 336 335 334 339 337 336 331 335 337 334 331 330 332 336
303 304 304 304 304 305 304 304 305 305 305 306 307 310 309 311 310 309 309 310 311 310 314 316 321 323 322 321 321 323 322 331 332 329 332 334 335 331 336 334 339 336 333 335 335 335 337 338 335 334 331 331 331 331
302 303 303 302 302 302 303 303 303 303 304 306 308 309 309 311 310 309 308 310 311 308 319 321 322 321 323 323 323 322 322 324 328 330 332 335 335 329 331 334 335 333 336 337 336 337 339 335 334 332 333 334 334 333
301 302 302 302 304 305 304 303 303 303 304 307 309 309 309 311 312 311 310 310 311 314 320 319 317 322 324 323 322 322 320 319 322 328 330 334 328 330 329 330 333 333 336 340 338 335 335 336 336 336 335 335 334 337
301 301 302 302 303 304 304 304 305 305 305 309 310 309 311 312 313 312 315 315 313 311 315 318 314 319 323 321 321 318 317 318 320 323 325 328 326 329 333 334 333 329 331 331 335 333 332 334 333 332 334 333 332 334
301 301 301 302 303 303 304 307 307 308 310 310 309 310 311 313 313 314 320 317 316 314 314 319 322 322 324 320 318 319 319 319 319 321 324 324 326 328 333 339 334 330 329 329 329 330 334 333 333 331 330 329 329 329
301 301 301 302 303 304 308 308 309 309 309 309 309 312 313 314 313 314 317 316 316 315 314 321 324 323 322 323 323 317 320 317 317 320 320 326 329 329 336 332 331 328 328 328 327 328 329 327 326 328 328 327 327 328
301 301 302 302 303 304 308 309 309 309 309 309 310 315 314 313 313 318 314 317 316 315 320 321 326 327 319 320 320 321 315 321 315 322 322 325 330 336 332 330 328 327 328 326 324 324 324 324 324 325 328 326 326 326
301 301 302 303 304 304 308 308 308 309 309 309 311 315 318 317 312 314 316 315 315 314 313 319 317 326 319 320 323 322 321 323 324 320 323 328 330 326 326 325 325 325 325 324 325 325 323 322 322 323 325 325 324 324
301 302 303 304 304 305 309 308 308 310 309 309 305 307 311 313 316 315 318 321 320 325 317 317 318 322 316 321 323 318 323 321 325 322 326 331 331 328 325 325 323 322 321 321 321 322 321 322 322 321 322 322 322 322
301 302 303 304 307 309 309 307 309 309 308 307 306 307 308 313 316 322 322 322 325 328 322 324 321 318 320 314 320 319 323 322 325 319 327 332 326 323 324 323 322 321 321 322 321 321 321 322 322 320 321 321 321 321
301 303 304 306 310 309 308 309 311 310 309 309 310 315 318 317 318 326 327 326 326 324 323 320 321 319 317 315 319 320 324 322 318 325 327 327 323 323 323 323 322 321 322 322 321 321 321 321 322 321 319 321 321 321
303 305 306 309 309 308 309 311 311 310 308 310 317 314 322 324 324 326 325 326 325 325 325 323 323 323 320 322 318 325 320 320 324 327 329 323 322 323 322 322 322 323 322 322 322 322 321 321 321 321 321 320 320 320
305 306 308 308 308 310 311 311 311 309 309 313 316 317 322 319 321 324 324 325 323 322 323 326 325 322 322 324 320 320 324 326 325 325 323 320 320 322 322 322 322 322 321 321 320 321 321 320 321 320 319 320 319 319
306 307 307 308 311 312 311 312 312 310 311 313 315 318 318 320 321 319 319 319 319 319 321 323 327 329 325 323 324 324 325 327 325 322 320 320 321 321 322 322 322 321 320 320 323 323 323 320 319 319 319 320 319 319
306 307 308 311 312 312 312 312 313 313 315 319 318 317 316 316 316 315 316 315 315 316 320 321 324 329 324 322 326 324 326 322 321 321 317 319 322 322 321 321 321 322 322 321 322 323 323 323 322 319 318 319 320 320
305 307 312 313 311 311 311 313 313 315 319 315 318 315 314 313 316 315 315 316 322 315 316 319 319 323 326 327 326 322 319 317 317 318 318 318 318 319 321 321 321 322 320 321 321 322 323 322 320 320 320 320 321 321
305 309 312 312 311 309 308 313 314 317 314 315 314 314 314 315 315 316 317 317 317 317 321 321 324 326 326 322 322 318 317 317 319 318 318 318 319 320 321 320 321 321 321 320 320 320 321 322 323 323 323 323 322 321
311 312 312 313 312 310 312 311 313 313 315 312 311 313 314 316 318 320 319 317 320 322 324 322 322 321 323 320 317 316 315 313 317 318 318 317 319 320 319 319 319 320 321 322 323 323 323 323 324 323 323 323 322 321
311 311 312 313 313 313 310 311 312 312 312 313 310 312 314 318 320 319 320 319 321 323 323 322 322 320 316 315 316 316 315 314 316 317 317 318 318 319 318 319 319 319 318 318 318 318 319 320 321 322 322 322 321 321
311 311 313 313 312 310 311 312 312 311 314 314 313 313 317 320 320 319 317 320 321 320 319 319 319 318 317 318 316 317 317 317 317 317 317 316 315 315 316 317 317 317 318 318 318 319 319 321 321 322 321 319 321 319
311 312 312 311 312 306 309 310 314 314 319 318 316 317 316 317 317 314 320 318 317 316 316 316 316 317 318 318 318 317 318 318 316 315 314 315 317 318 318 319 319 317 316 318 320 319 318 319 317 318 319 319 316 316
311 311 310 310 310 311 311 314 312 314 314 316 319 320 318 317 315 317 320 319 316 313 313 313 315 315 315 314 314 314 317 318 317 317 316 317 314 315 318 319 319 319 319 319 319 319 319 319 318 318 318 318 317 316
306 307 308 307 309 314 316 315 315 314 316 315 317 317 317 316 321 321 319 317 315 315 313 313 313 313 314 313 313 316 319 318 316 315 316 317 317 316 314 314 317 319 319 319 319 317 317 317 317 317 317 317 317 316
305 310 310 315 314 315 315 316 316 316 315 316 316 315 313 316 319 319 317 316 315 315 315 314 315 315 314 314 315 315 318 318 317 314 316 315 317 316 314 313 312 313 318 317 317 316 316 316 315 315 315 315 313 312
312 314 311 307 311 312 313 312 313 315 317 318 315 316 317 320 319 315 311 312 314 316 319 318 316 314 314 315 317 318 318 318 317 316 312 313 315 317 318 315 311 310 312 317 317 317 317 317 316 313 311 310 310 309
312 312 314 312 315 312 318 320 321 319 316 313 315 318 320 320 317 315 314 317 318 318 318 318 317 316 316 316 316 316 316 315 314 315 316 316 315 314 314 312 314 314 313 312 312 312 312 312 313 311 310 310 310 310
314 314 314 317 317 318 319 321 321 320 317 319 322 322 321 316 317 316 317 318 318 318 315 316 316 317 317 317 318 317 316 316 315 315 316 315 314 317 313 314 314 313 313 313 314 314 315 314 313 312 311 310 309 310
318 315 317 316 318 320 319 316 316 315 314 317 318 318 318 319 318 318 318 318 317 317 318 318 319 316 316 316 315 317 318 318 317 316 316 317 317 314 312 313 313 314 314 314 313 312 311 310 311 313 313 313 312 312
311 312 316 317 318 318 318 315 314 313 313 314 316 319 320 319 318 319 319 318 318 318 318 317 319 318 317 316 317 316 315 317 315 313 313 318 314 312 313 313 312 312 312 310 310 310 310 309 309 310 310 310 308 308
313 315 316 318 318 318 317 317 314 313 312 315 315 313 318 319 318 317 318 318 317 317 318 318 317 318 318 318 318 318 317 316 310 309 307 311 313 311 312 312 312 311 311 311 311 310 310 309 309 309 308 307 307 306
314 315 315 315 319 320 318 320 318 315 314 315 316 315 314 318 319 316 318 318 318 318 318 318 318 318 318 318 318 317 316 310 310 309 308 307 309 312 312 310 310 310 311 311 311 311 310 310 309 309 309 308 307 305
Wind_Speed
19 19 18 19 21 22 22 22 22 22 22 21 19 18 18 17 14 12 6 5 2 2 6 5 4 3 2 1 2 3 3 2 2 2 3 3 3 4 1 1 2 4 6 4 2 3 6 3 4 7 3 1 4 5
19 19 20 21 22 24 24 23 22 22 22 21 20 19 19 16 12 8 3 1 4 2 5 6 18 23 17 11 2 2 3 3 4 3 1 3 2 1 2 3 1 1 4 4 6 4 3 3 3 2 3 2 2 4
21 21 22 23 24 23 25 24 23 23 23 21 20 19 19 16 11 6 6 7 3 3 5 2 7 15 19 30 24 3 3 3 3 3 3 2 3 3 4 4 2 3 4 2 1 1 3 4 3 2 2 4 7 4
22 23 24 24 26 26 24 24 23 23 22 20 19 19 22 16 11 7 6 4 3 1 2 6 5 8 7 14 30 32 4 3 3 2 2 3 3 3 3 2 2 3 3 3 2 3 1 5 7 5 6 7 6 7
23 24 24 25 25 25 25 24 25 24 22 20 19 24 20 15 11 9 13 12 13 1 3 5 17 5 8 13 22 22 5 3 2 1 2 3 2 3 1 1 3 4 5 4 4 3 3 2 4 8 8 7 9 8
25 26 26 27 26 27 27 28 28 27 22 20 24 24 16 10 8 3 2 6 14 10 0 4 6 5 5 9 13 7 5 4 3 4 3 2 1 2 3 2 1 3 2 3 3 1 6 6 7 7 5 7 9 7
26 27 27 27 27 28 29 28 26 23 24 27 29 18 11 10 7 4 2 2 12 9 1 4 5 4 4 3 2 2 2 2 2 2 2 3 1 3 2 2 2 4 5 3 4 7 5 5 2 5 5 6 6 7
28 28 26 26 26 27 26 23 25 28 29 31 23 17 9 8 5 3 2 6 15 3 2 2 4 5 4 1 0 2 1 2 4 2 1 2 2 1 1 2 4 5 6 8 8 6 5 5 4 5 7 8 9 8
28 28 26 26 26 25 22 24 28 33 32 24 13 3 3 3 2 4 7 5 17 2 2 1 2 3 4 1 1 2 2 2 2 1 0 2 0 3 3 5 6 5 2 7 6 7 6 6 4 3 4 6 6 8
30 29 27 28 28 25 17 23 30 34 27 14 3 1 1 2 9 2 3 2 1 1 1 3 1 3 1 2 1 2 2 1 1 2 1 3 2 2 1 1 4 6 7 5 3 4 5 5 6 5 5 3 3 4
32 31 30 31 30 22 14 24 30 31 11 8 6 2 9 9 2 1 1 2 1 2 3 4 5 2 1 1 2 0 2 0 2 3 3 0 2 2 4 4 3 5 6 7 6 5 5 4 4 4 4 5 7 8
32 32 32 31 21 11 17 25 23 15 11 11 10 8 6 3 3 1 3 1 3 3 1 2 4 5 2 2 3 2 2 1 3 1 3 1 3 4 6 6 5 6 7 7 7 6 5 6 4 3 3 5 8 11
33 33 32 20 10 14 24 26 22 18 9 1 1 2 1 2 3 2 2 2 2 4 4 4 4 2 1 3 3 2 3 3 1 2 2 4 2 4 6 6 5 5 7 7 5 6 6 6 6 5 3 5 7 10
33 34 28 9 12 23 28 25 23 7 1 1 2 5 1 2 1 1 1 2 2 2 4 4 3 2 2 3 2 3 2 2 1 1 4 2 5 6 6 4 5 6 6 6 5 4 3 3 2 2 3 5 8 10
35 33 7 14 22 25 26 21 9 3 2 1 1 2 2 3 3 2 3 2 2 2 3 2 2 2 3 4 1 3 3 3 3 3 2 2 4 5 5 3 4 4 4 2 2 3 4 4 3 2 2 2 3 5
37 16 8 23 21 25 21 7 3 1 1 1 1 2 3 1 3 3 3 3 4 3 2 1 2 5 4 3 3 5 6 5 3 2 2 2 5 4 3 3 4 4 4 4 3 3 2 3 5 4 3 2 2 2
28 4 25 18 24 25 5 2 1 1 1 2 1 1 2 3 4 2 1 3 2 3 1 2 3 3 6 3 2 2 4 3 4 2 2 4 5 4 5 4 4 4 4 5 3 4 4 1 2 3 4 1 4 4
9 27 21 18 21 15 4 2 1 1 2 2 1 4 2 1 2 2 3 3 2 1 1 3 3 2 2 3 1 2 2 2 2 2 1 1 1 1 2 2 2 3 3 1 3 3 4 5 4 5 5 7 7 4
28 21 16 17 10 5 3 3 1 2 2 2 3 2 1 3 2 2 2 2 1 2 2 1 1 1 3 2 2 1 2 1 2 2 2 2 2 1 2 3 2 2 3 3 4 5 7 8 9 7 5 4 2 4
13 7 18 9 6 2 2 3 2 1 2 3 2 3 2 2 3 2 1 2 1 1 2 1 1 2 2 2 1 1 2 2 3 3 3 3 4 1 1 1 2 3 3 3 3 3 2 3 4 4 4 3 2 2
7 14 10 8 2 1 1 2 3 2 3 2 2 3 3 2 2 2 2 3 2 2 2 1 2 3 4 3 1 5 4 3 1 2 2 2 2 2 3 3 3 2 1 2 2 4 4 4 5 3 3 4 2 1
6 14 5 3 2 3 1 3 2 3 2 2 3 2 2 1 2 1 1 1 1 2 2 2 1 2 1 2 4 7 6 7 6 6 5 4 3 3 3 5 3 3 3 3 3 4 5 5 3 1 5 1 3 1
10 5 4 3 2 3 5 2 1 2 2 3 3 2 2 2 2 3 2 2 1 1 2 2 3 2 3 4 8 10 7 6 4 6 7 7 7 6 6 7 6 5 3 3 3 4 3 4 4 3 4 4 3 2
4 3 3 2 1 3 3 3 2 2 3 4 3 3 3 2 3 3 2 3 3 3 3 4 4 2 4 6 4 3 7 4 5 7 6 3 4 7 5 4 6 7 7 5 5 7 6 4 4 5 6 3 2 6
3 4 3 4 1 3 4 6 4 3 3 2 4 3 2 2 3 4 3 4 4 4 4 4 3 2 3 1 2 3 5 4 3 2 6 4 3 3 7 9 6 5 2 2 6 6 7 6 5 3 2 2 1 8
2 2 2 3 2 2 2 3 2 2 2 3 2 3 2 2 2 1 2 2 2 2 2 1 1 2 2 2 2 0 3 5 6 4 4 5 3 2 2 3 3 5 4 4 5 5 6 8 8 7 7 8 8 8
3 3 2 2 1 0 2 2 1 1 2 2 3 4 3 3 1 2 2 2 2 2 4 4 6 5 4 4 4 2 2 3 2 3 7 10 8 4 1 1 1 5 5 2 3 5 7 9 10 10 9 7 7 7
3 2 3 4 2 1 2 3 6 5 4 2 1 5 4 1 3 1 2 2 4 0 4 5 6 8 9 9 10 6 7 11 14 16 15 14 13 9 4 3 4 5 6 4 3 4 6 8 9 10 11 11 12 11
2 2 2 3 0 1 2 2 3 3 1 1 2 3 2 1 3 3 6 7 4 1 1 1 3 5 7 10 9 11 10 8 10 6 5 2 4 7 7 3 1 4 7 7 8 10 10 9 8 7 8 10 11 12
3 1 2 1 1 2 1 4 2 1 0 1 1 2 1 2 4 5 11 12 1 6 4 3 1 2 4 4 5 5 7 9 8 5 2 1 2 6 3 3 8 12 11 10 11 12 13 14 15 17 15 14 11 11
1 0 2 3 2 1 2 0 2 2 2 2 0 1 1 2 3 2 10 8 3 2 3 1 1 4 2 1 0 2 3 5 6 4 6 3 4 7 10 8 7 6 6 8 10 12 15 15 14 14 15 14 15 15
1 2 1 2 2 1 1 2 1 2 3 3 3 3 3 3 5 2 8 4 2 2 1 1 3 2 2 2 2 4 4 6 6 6 4 2 3 4 6 4 4 4 2 3 4 5 6 8 7 7 8 10 12 14
3 1 2 2 2 1 2 1 3 3 3 3 3 1 1 3 4 3 5 4 4 3 5 6 6 5 3 3 4 6 5 5 4 5 5 4 2 5 5 5 5 5 6 6 5 4 2 2 4 6 8 10 11 13
Wind_Direction
340 341 341 340 341 342 342 343 344 344 345 344 341 341 340 341 344 344 295 233 208 242 274 225 247 238 13 112 162 278 28 309 77 108 152 184 168 220 235 250 234 168 143 202 99 86 259 118 107 173 241 289 169 155
343 341 339 337 335 334 338 339 339 339 339 339 336 335 336 335 339 333 287 198 195 212 253 263 263 256 247 227 147 249 217 198 205 101 104 111 136 117 181 238 29 263 180 177 171 222 251 278 223 171 181 226 234 133
340 338 335 333 332 329 331 331 331 333 332 333 332 331 331 329 326 302 280 275 252 302 294 327 240 274 251 236 221 171 262 202 172 157 162 154 198 149 164 245 186 231 169 170 43 349 303 338 299 107 175 276 292 263
338 335 332 328 326 325 328 329 330 328 328 329 328 330 329 321 311 273 241 224 228 254 289 282 318 282 265 219 203 207 148 90 59 108 124 142 220 171 191 218 190 185 135 138 270 270 69 48 10 352 32 20 338 323
340 339 338 335 333 331 329 330 330 329 326 326 327 329 322 316 305 274 249 242 224 150 257 284 310 280 258 211 195 205 185 120 154 158 147 218 146 135 69 81 235 186 176 147 221 237 122 33 359 13 22 4 335 349
347 346 345 343 339 338 336 332 329 327 327 327 327 324 314 304 300 290 294 223 204 190 138 313 303 300 346 172 174 180 174 177 169 158 202 194 271 119 135 212 271 199 157 159 160 113 99 122 49 23 360 346 348 6
344 342 341 341 341 340 338 334 336 340 335 329 325 317 295 275 237 181 181 346 179 178 148 307 310 286 317 78 51 90 90 175 139 143 188 146 182 98 108 231 156 117 85 80 135 125 77 25 37 345 360 353 352 28
344 342 340 339 340 341 340 345 345 340 334 330 325 309 270 249 222 231 167 225 176 223 141 271 275 336 5 61 88 6 106 36 14 149 79 114 89 73 238 205 139 116 101 64 60 63 109 101 54 21 10 357 13 11
343 343 341 341 340 339 338 340 338 337 337 333 329 17 110 147 146 151 332 78 191 208 271 182 230 259 357 8 235 36 71 75 300 77 85 85 293 211 250 158 151 174 100 140 101 100 115 106 103 61 63 33 24 350
342 342 340 340 338 335 335 343 339 339 338 344 359 296 9 75 310 194 97 104 137 279 89 228 250 267 66 352 55 78 9 168 112 266 70 72 234 284 220 113 131 127 133 140 97 44 36 46 39 29 28 27 18 336
340 339 339 340 338 334 336 343 341 343 349 11 14 345 312 328 149 43 194 175 182 251 192 234 190 242 296 89 181 350 147 293 96 264 144 293 284 198 153 131 135 115 101 86 105 106 90 81 59 34 15 9 355 347
338 338 338 339 339 355 343 342 343 355 340 311 294 307 307 338 44 164 238 306 210 245 286 215 231 192 264 95 103 344 114 104 209 182 102 190 251 154 149 141 150 148 132 120 118 118 92 69 56 47 18 2 355 355
336 336 338 336 337 338 337 338 335 323 324 344 245 278 32 309 32 219 259 283 308 330 359 332 301 200 89 67 66 75 57 244 11 53 212 221 217 164 156 154 154 158 131 126 126 121 104 88 67 55 20 7 8 13
335 335 338 334 331 332 333 332 324 317 148 77 31 2 104 320 351 11 271 275 282 287 309 283 266 258 208 86 128 107 226 82 17 235 234 239 187 171 168 162 137 165 161 155 154 151 133 93 69 26 11 10 13 14
335 336 344 351 335 332 336 332 343 144 147 74 51 10 44 318 264 315 310 266 337 308 315 359 342 359 283 93 245 124 135 229 209 226 236 236 170 157 157 157 162 178 184 181 176 206 206 194 217 292 341 359 23 27
335 338 353 336 331 334 338 346 3 57 89 69 171 353 302 322 315 351 355 333 356 325 294 337 53 23 295 147 148 190 162 197 212 212 234 154 146 147 157 181 197 207 202 214 220 244 254 204 225 248 289 297 311 346
338 295 332 343 337 337 360 5 337 296 289 277 301 213 218 250 252 270 262 257 311 32 42 17 100 126 303 281 146 196 183 184 154 149 167 174 175 198 193 175 175 186 199 209 211 244 261 321 278 251 280 303 325 311
302 322 341 344 339 341 333 348 349 322 302 293 321 297 248 245 278 305 297 324 327 121 136 185 130 141 252 280 262 198 99 49 58 90 70 24 42 101 152 157 175 193 199 250 263 282 252 250 257 262 287 317 320 337
310 320 339 339 322 318 348 331 51 352 270 307 304 297 303 282 261 242 249 290 262 236 125 136 220 173 258 277 270 57 90 106 124 89 53 41 95 158 187 198 195 230 258 256 267 274 277 270 268 282 281 302 310 13
333 334 343 342 345 336 335 300 336 108 287 270 297 324 292 265 305 342 347 346 332 245 176 182 219 231 244 297 286 129 119 132 94 65 32 20 35 43 57 314 275 278 291 277 264 274 305 312 288 278 239 231 162 51
338 345 340 346 330 343 197 318 312 230 300 309 278 337 300 346 36 21 342 349 330 333 68 88 310 335 343 315 202 99 75 72 89 126 147 71 352 60 29 19 3 348 292 276 265 292 315 309 324 304 235 191 181 74
323 334 321 327 324 347 280 235 215 285 294 260 338 329 339 358 310 42 235 25 20 337 342 336 314 240 217 33 42 65 88 98 96 102 95 84 47 15 6 343 338 338 324 298 297 292 324 336 324 208 171 165 163 136
328 326 319 338 350 36 270 335 343 305 294 305 342 353 333 4 304 329 54 359 296 280 318 310 327 26 90 84 90 70 67 97 93 90 70 68 68 49 45 48 41 21 3 3 355 353 22 80 80 118 175 171 168 181
325 337 359 344 104 281 339 329 336 325 315 343 349 359 12 345 338 44 52 309 307 320 359 343 2 34 42 46 42 31 33 90 100 80 70 74 60 41 48 41 30 41 54 77 59 77 92 82 85 113 120 128 290 302
11 332 72 331 241 359 345 341 333 6 329 318 353 3 345 359 44 6 351 304 333 345 354 8 56 61 110 77 19 21 70 105 106 67 39 39 38 20 37 39 39 52 58 74 30 30 40 53 67 76 104 194 280 340
60 294 97 341 315 49 329 337 311 297 307 317 328 302 28 74 65 343 294 281 294 297 323 351 137 114 74 131 135 138 75 55 59 59 10 40 120 90 34 21 355 19 49 52 60 54 36 26 19 3 342 325 317 304
21 333 294 230 245 247 311 297 321 314 287 324 326 339 4 67 51 255 270 255 258 315 19 50 55 78 107 102 90 48 41 28 33 67 87 81 81 77 32 359 337 360 14 10 352 348 338 333 336 343 338 335 321 312
253 305 315 303 323 108 9 17 8 345 332 297 37 4 340 217 211 279 244 328 298 296 118 111 99 85 79 58 47 92 97 110 108 109 97 84 71 61 71 74 22 14 360 341 333 330 313 300 293 289 286 289 297 306
294 247 276 303 355 226 181 145 258 244 238 258 194 167 247 314 359 10 4 342 313 202 147 25 93 104 59 56 47 53 85 124 114 90 69 10 356 29 27 51 25 81 81 79 69 59 54 46 26 351 322 290 285 296
231 250 285 279 349 290 301 190 251 314 37 250 296 319 337 25 344 333 1 5 173 231 273 299 124 126 36 32 12 51 57 56 60 66 136 271 328 341 352 115 111 111 102 81 72 59 43 30 23 22 17 11 5 351
271 232 254 252 276 217 264 191 4 5 5 346 21 24 70 359 14 30 312 318 310 266 249 253 241 213 195 148 157 11 7 57 47 42 19 57 129 104 123 127 121 117 101 87 75 64 54 46 35 27 25 29 26 19
301 226 172 285 299 11 66 39 7 17 349 17 10 35 16 51 357 311 345 360 68 65 314 250 201 277 289 242 305 306 328 348 7 21 6 196 152 133 157 175 183 171 146 90 63 55 47 48 41 19 5 1 354 351
293 292 247 276 293 351 348 62 29 359 16 22 12 339 155 155 190 253 315 8 47 82 90 64 68 66 47 26 20 14 7 26 35 25 28 44 205 236 249 245 242 243 249 249 260 270 270 330 349 341 328 324 327 333